sat.trackr.live / text

‹ back to catalog

STARLINK-34094

NORAD 63822 · 2025-092U

PAYLOAD ACTIVE UNKNOWN

§ Identity

Operator
Country
US
Launch date
2025-05-04
Launch site
AFETR
Launch vehicle
Mass (kg)
RCS (m²)

Purposes: comms

External: N2YO · Heavens-Above · Gunter

§ Orbital elements

Epoch: 2026-05-25T03:22:40.783584Z

Period
94.27 min
Inclination
42.9963°
Eccentricity
0.0001007
Mean motion
15.27604772 rev/d
Perigee alt
482.3 km
Apogee alt
483.7 km
Semi-major
6,861.1 km
B*
8.8316e-4
RAAN
97.5708°
Arg perigee
219.9550°
Mean anomaly
140.1228°
Rev number
6,039

§ Raw data

STARLINK-340941 63822U 25092U   26145.14074981  .00024138  00000+0  88316-3 0  99972 63822  42.9963  97.5708 0001007 219.9550 140.1228 15.27604772 60398

JSON: /api/v1/satellites/63822 · /tle

For live sub-satellite position, see the globe view (requires WebGL).

§ Visibility from observer

Set your observer location to see the next 7 days of passes ≥ 10°. The values pass through the URL so the page stays shareable.

No JS? Fill the form by hand. The geolocation button needs JavaScript.